Location: Poughquag
(41.6090°N, 73.6820°W)
Time: 10:13:36
(UTC-05:00)

Vanguard 1 - Pass Details

Date: 01 December 2023
Orbit: 653 x 3826 km, 34.3° (Epoch: 25 February)

Event Time Altitude Azimuth Distance (km) Brightness Sun altitude
Rises 14:54:59 0° 171° (S) 5,309 14.4 12.6°
Reaches altitude 10° 15:01:12 10° 146° (SE) 5,009 13.9 11.8°
Maximum altitude 15:07:13 13° 122° (ESE) 5,307 13.7 11.0°
Drops below altitude 10° 15:14:21 10° 99° (E) 6,173 13.8 10.0°
Sets 15:24:11 0° 79° (ENE) 7,740 14.1 8.6°
